Hourly Weather Roundup
Issued by NWS Central Illinois

Home | Current Version | Previous Version | Text Only | Print | Product List | Glossary On
Versions: 1 2 3 4 5 6 7 8 9 10 11 12 13 14 15 16 17 18 19 20 21 22 23 24 25 26 27 28 29 30 31 32 33 34 35 36 37 38 39 40 41 42 43 44 45 46 47 48 49 50
000
NZUS43 KILX 260310
HWRILX

Area Weather Roundup
National Weather Service Lincoln IL
1000 PM CDT WED APR 25 2018

NOTE:  "FAIR" indicates few or no clouds below 12,000 feet, with
       no sigificant weather and/or obstructions to visibility.


CITY           SKY/WX    TMP DP  RH WIND       PRES   REMARKS
Bloomington    FAIR      47  35  63 E10       30.02R
Champaign      FAIR      47  33  58 NE10      30.00R
Danville       FAIR      44  33  65 NE6       29.99R
Decatur        FAIR      46  38  73 NE8       29.99R
Effingham      FAIR      56  42  58 NE6       29.99S
Flora          FAIR      60  49  66 N8        29.97R
Galesburg      FAIR      50  33  52 CALM      30.00S
Jacksonville   CLOUDY    51  40  65 N6        29.99S
Lacon          FAIR      47  32  57 E10G18    30.01R
Lawrenceville  FAIR      59  43  55 MISG      29.97R
Litchfield     CLOUDY    57  42  58 NE10      29.98R
$$


CITY           SKY/WX    TMP DP  RH WIND       PRES   REMARKS
Lincoln        FAIR      50  40  67 E6        29.99R
Macomb         CLOUDY    48  34  57 W5        30.02R
Mattoon        FAIR      52  37  56 E9        29.98R
Mt Carmel AP   FAIR      60  45  57 N7        29.96R
Olney-Noble AP FAIR      58  40  50 NE9       29.97R
Paris AP       FAIR      49  33  53 NE7       30.01S
Peoria         FAIR      56  29  35 N7        29.99R
Pontiac        FAIR      43  34  69 E13       30.03S
Rantoul        FAIR      47  36  64 NE8       30.01S
Robinson       FAIR      55  38  53 NE9       29.98R
Springfield    FAIR      55  40  56 N6        29.99R
Taylorville    FAIR      56  38  51 E6        29.98S
$$

...REGIONAL REPORTS...


CITY           SKY/WX    TMP DP  RH WIND       PRES   REMARKS
Chicago O`Hare FAIR      41  28  60 NE3       30.03F
Kankakee       FAIR      39  30  71 NE6       30.04S WCI  35
La Salle       FAIR      49  35  58 E7        30.02S
Moline         FAIR      49  33  54 CALM      29.99R
Mount Sterling MOCLDY    51  37  59 NW3       29.99F
Mount Vernon   LGT RAIN  57  56  96 CALM      29.96S
Pittsfield     CLOUDY    54  41  62 NW5       30.00S
Quincy         PTCLDY    53  38  56 N5        29.99F
Rockford       FAIR      44  31  60 E9        30.03S
$$


CITY           SKY/WX    TMP DP  RH WIND       PRES   REMARKS
Burlington     CLEAR     50  34  54 CALM      29.99R
Cedar Rapids   FAIR      50  28  42 N5        29.99S
Des Moines     CLEAR     57  28  33 NE5       30.01S
Kirksville     PTCLDY    45  45 100 W6        30.02S
Ottumwa        CLEAR     49  30  48 W8        30.00R
St Louis       LGT RAIN  60  47  61 NW7       29.97S
$$


CITY           SKY/WX    TMP DP  RH WIND       PRES   REMARKS
Terre Haute    FAIR      52  33  48 NE9       29.99R
Evansville     FAIR      61  50  67 N3        29.94S
Indianapolis   MOCLDY    49  30  48 N12       29.98S
Lafayette      FAIR      44  32  62 N7        30.01S
Madison        FAIR      46  29  51 CALM      30.00F
Milwaukee      FAIR      40  29  64 CALM      30.03F
$$






USA.gov is the U.S. government's official web portal to all federal, state and local government web resources and services.